This demonstration page uses our WeatherBlox Daily Observations layout. Learn more.

Left ArrowRight Arrow

34.02893, -84.19858

Hourly Observations for February 9, 2020

Temp ( °F °C ) Dew Point ( °F °C ) Humidity (%) Winds ( mph kmh ) Pressure ( in mb ) Visibility ( mi km ) Precip ( " mm )
12:53 am 00:53 Mostly Cloudy with Fog 34 1.1 34 1.1 100 100 Calm 30.44 1031 0 0 0.00 0.00
1:53 am 01:53 Mostly Cloudy with Fog 34 1.1 34 1.1 100 100 Calm 30.44 1031 0 0 0.00 0.00
2:53 am 02:53 Mostly Cloudy with Fog 34 1.1 34 1.1 100 100 ENE 3 6 30.43 1031 0 0 0.00 0.00
3:53 am 03:53 Mostly Cloudy with Fog 33 0.6 33 0.6 100 100 Calm 30.43 1031 0 0 0.00 0.00
4:53 am 04:53 Mostly Cloudy with Fog 32 0 32 0 100 100 Calm 30.44 1031 0 0 0.00 0.00
5:53 am 05:53 Mostly Cloudy with Freezing Fog 31 -0.6 31 -0.6 100 100 Calm 30.46 1032 0 0 0.00 0.00
6:53 am 06:53 Mostly Cloudy with Freezing Fog 31 -0.6 31 -0.6 100 100 VRB 3 6 30.49 1033 0 0 0.00 0.00
7:53 am 07:53 Mostly Cloudy with Freezing Fog 31 -0.6 31 -0.6 100 100 Calm 30.52 1034 0 0 0.00 0.00
8:53 am 08:53 Mostly Cloudy with Freezing Fog 31 -0.6 31 -0.6 100 100 E 5 7 30.53 1034 0 0 0.00 0.00
9:49 am 09:49 Cloudy with Mist and Fog 32 0 32 0 100 100 ESE 5 7 30.54 1034 1 2 0.00 0.00
9:53 am 09:53 Cloudy with Mist and Fog 32 0 32 0 100 100 ESE 3 6 30.55 1034 2 2 0.00 0.00
10:05 am 10:05 Cloudy with Mist and Fog 33 0.6 32 0 96 96 Calm 30.54 1034 2 3 0.00 0.00
10:23 am 10:23 Cloudy with Mist and Fog 34 1.1 33 0.6 97 97 VRB 3 6 30.55 1034 4 6 0.00 0.00
10:38 am 10:38 Cloudy with Mist and Fog 34 1.1 33 0.6 97 97 SE 5 7 30.55 1034 4 6 0.00 0.00
10:53 am 10:53 Cloudy with Mist and Fog 34 1.1 33 0.6 97 97 E 6 9 30.55 1035 6 10 0.00 0.00
11:16 am 11:16 Cloudy 37 2.8 35 1.7 93 93 VRB 5 7 30.54 1034 7 11 0.00 0.00
11:53 am 11:53 Mostly Cloudy 42 5.6 37 2.8 82 82 SE 7 11 30.54 1034 10 16 0.00 0.00
12:02 pm 12:02 Mostly Sunny 42 5.6 37 2.8 82 82 VRB 3 6 30.52 1033 10 16 0.00 0.00
12:53 pm 12:53 Sunny 44 6.7 37 2.8 76 76 SE 7 11 30.51 1033 10 16 0.00 0.00
1:53 pm 13:53 Sunny 47 8.3 37 2.8 69 69 VRB 5 7 30.46 1031 10 16 0.00 0.00
2:53 pm 14:53 Sunny 50 10 37 2.8 61 61 SE 6 9 30.42 1030 10 16 0.00 0.00
3:53 pm 15:53 Sunny 52 11.1 37 2.8 57 57 SE 10 17 30.42 1030 10 16 0.00 0.00
4:53 pm 16:53 Sunny 52 11.1 37 2.8 57 57 VRB 5 7 30.40 1030 10 16 0.00 0.00
5:53 pm 17:53 Sunny 49 9.4 36 2.2 61 61 VRB 5 7 30.42 1030 10 16 0.00 0.00
6:53 pm 18:53 Clear 43 6.1 37 2.8 80 80 ENE 8 13 30.44 1031 10 16 0.00 0.00
7:53 pm 19:53 Clear 40 4.4 36 2.2 86 86 E 9 15 30.45 1031 8 13 0.00 0.00
8:53 pm 20:53 Clear with Mist and Fog 38 3.3 36 2.2 93 93 VRB 3 6 30.46 1031 6 10 0.00 0.00
9:04 pm 21:04 Mostly Clear with Mist and Fog 38 3.3 36 2.2 93 93 VRB 5 7 30.45 1031 6 10 0.00 0.00
9:24 pm 21:24 Mostly Cloudy with Mist and Fog 38 3.3 36 2.2 93 93 VRB 5 7 30.45 1031 6 10 0.00 0.00
9:53 pm 21:53 Mostly Cloudy with Mist and Fog 38 3.3 36 2.2 93 93 VRB 3 6 30.45 1031 6 10 0.00 0.00
10:25 pm 22:25 Partly Cloudy with Mist and Fog 38 3.3 36 2.2 93 93 VRB 3 6 30.43 1030 6 10 0.00 0.00
10:53 pm 22:53 Clear with Mist and Fog 38 3.3 36 2.2 93 93 VRB 5 7 30.42 1030 6 10 0.00 0.00
11:53 pm 23:53 Clear 38 3.3 36 2.2 93 93 E 3 6 30.41 1030 7 11 0.00 0.00

Powered by AerisWeather